[[{"header":{"parameterUnit":"m.s-1","parameterCategory":1,"la1":30.2991,"la2":30.254,"lo1":-89.0895,"lo2":-89.0444,"dy":0.0017,"dx":0.0017,"nx":28,"ny":28,"refTime":"2024-05-12T03:00:00:Z","depth":0,"parameterNumber":2,"parameterNumberName":"U-component_of_WINDS"},"data":[0,0,0,0,0,0,0,0,0,0,0,0,0,0,0,0,0,0,0,0,0,0,0,0,0,0,0,0,0,0,0,0,0,0,0,0,0,0,0,0,0,0,0,0,0,0,0,0,0,0,0,0,0,0,0,0,0,0,-6.9511,-6.9511,0,-6.9531,-6.9531,-6.9531,-6.9417,-6.9414,-6.9411,-6.9408,-6.9425,-6.9429,-6.9432,0,0,0,0,0,0,0,0,0,0,0,0,0,-6.9371,-6.9375,-6.9511,-6.9511,-6.9511,-6.9531,-6.9531,-6.9531,-6.9418,-6.9414,-6.941,-6.9406,-6.9424,-6.9428,-6.9433,0,0,0,0,0,0,0,0,0,0,0,0,0,-6.9416,-6.9376,-6.9511,-6.9457,-6.9452,-6.9531,-6.9531,-6.9532,-6.9419,-6.9414,-6.9409,-6.9404,-6.9423,-6.9428,-6.9433,-6.9563,0,0,-6.9449,-6.9452,0,0,0,0,0,0,0,0,-6.9413,-6.9421,-6.9465,-6.9461,-6.9456,-6.9467,-6.9488,-6.9542,-6.942,-6.9431,-6.9408,-6.9402,-6.9443,-6.9446,-6.9461,-6.9564,-6.9565,-6.945,-6.9453,-6.9455,-6.9457,0,0,0,0,0,0,0,-6.9411,-6.942,-6.9519,-6.9466,-6.946,-6.9431,-6.9432,-6.9498,-6.9464,-6.943,-6.9422,-6.9426,-6.944,-6.9456,-6.946,-6.9565,-6.945,-6.9454,-6.9457,-6.946,-6.9776,-6.9781,0,0,0,0,0,0,-6.9415,-6.9418,-6.9518,-6.9519,-6.9422,-6.9438,-6.9439,-6.9468,-6.9463,-6.9458,-6.943,-6.9421,-6.9449,-6.9454,-6.946,-6.9611,-6.9455,-6.946,-6.9463,-6.9771,-6.9777,-6.9783,0,0,0,0,0,0,-6.9413,-6.9425,-6.9517,-6.9466,-6.9476,-6.9445,-6.9479,-6.9471,-6.9487,-6.9463,-6.9456,-6.9453,-6.9446,-6.9453,-6.9539,-6.961,-6.9462,-6.9467,-6.9764,-6.9773,-6.978,-6.9915,0,0,0,0,0,0,-6.9409,-6.9425,-6.9474,-6.9468,-6.9479,-6.9596,-6.9484,-6.9475,-6.9497,-6.9485,-6.9483,-6.9478,-6.9442,-6.9531,-6.9544,-6.9615,-6.9471,-6.9758,-6.9768,-6.9777,-6.9904,-6.9926,-6.9946,0,0,0,0,0,-6.9404,-6.9511,-6.9477,-6.949,-6.9541,-6.96,-6.9606,-6.9564,-6.9503,-6.9552,-6.9537,-6.9478,-6.9601,-6.9541,-6.9554,-6.9628,-6.9753,-6.9765,-6.9777,-6.9894,-6.9922,-6.9945,0,0,0,0,0,0,-6.9525,-6.9509,-6.9472,-6.958,-6.9593,-6.9581,-6.9641,-6.9595,-6.9624,-6.9611,-6.9557,-6.9557,-6.9652,-6.9649,-6.9582,-6.9753,-6.9666,-6.9681,-6.9751,-6.9777,-6.9798,-6.9796,-6.9476,0,0,0,0,0,-6.9564,-6.9615,-6.9598,-6.9695,-6.9704,-6.9672,-6.9697,-6.9663,-6.9674,-6.9678,-6.9669,-6.9681,-6.9722,-6.975,-6.9786,-6.9904,-6.9901,-6.9961,-6.9982,-6.9999,-7.0012,-7.0073,-7.0099,-6.9821,-6.9821,-6.9821,0,0,-6.9645,-6.9643,-6.9678,-6.972,-6.9725,-6.9778,-6.9677,-6.9737,-6.9776,-6.9687,-6.9767,-6.9761,-6.9771,-6.9873,-6.9917,-6.9873,-7.0089,-7.0015,-7.0029,-7.0032,-7.0088,-7.0114,-7.0138,-6.9829,-6.9828,-6.9827,0,0,-6.982,-6.9824,-6.9905,-6.9914,-6.9924,-6.9903,-6.9923,-6.9919,-6.9912,-6.9992,-6.9926,-6.9971,-7.0044,-7.0053,-7.0067,-7.0248,-7.0194,-7.0261,-7.037,-7.043,-7.0452,-7.0471,-7.0534,-7.0557,-7.0275,-7.0275,-7.0275,0,-6.9918,-6.9997,-6.9952,-7.0017,-7.0037,-6.9961,-7.0042,-7.0052,-7.0074,-7.0089,-7.004,-7.0129,-7.013,-7.0233,-7.0277,-7.0292,-7.0312,-7.026,-7.0453,-7.0471,-7.0488,-7.0547,-7.0572,-7.0283,-7.0282,-7.0281,-7.028,0,-7.0117,-7.0173,-7.0236,-7.0261,-7.0288,-7.0361,-7.0327,-7.0359,-7.0325,-7.0308,-7.0391,-7.039,-7.0425,-7.0447,-7.0413,-7.0546,-7.0518,-7.0462,-7.0373,-7.0523,-7.0578,-7.0601,-7.0294,-7.0291,-7.0289,-7.0287,0,0,-7.0365,-7.0366,-7.0389,-7.0399,-7.0407,-7.0448,-7.0518,-7.0553,-7.0582,-7.0601,-7.0656,-7.0721,-7.0669,-7.0685,-7.0652,-7.0706,-7.0847,-7.0642,-7.0642,-7.0679,-7.0991,-7.1032,-7.1059,-7.0813,-7.0817,-7.0821,-7.099,0,-7.0534,-7.0653,-7.0616,-7.0735,-7.0785,-7.0715,-7.0775,-7.0786,-7.0774,-7.0814,-7.0799,-7.0845,-7.0774,-7.0784,-7.0834,-7.0819,-7.0909,-7.0807,-7.0863,-7.0865,-7.086,-7.1088,-7.113,-7.129,-7.1011,-7.1015,-7.1018,0,-7.0746,-7.0774,-7.09,-7.0899,-7.0919,-7.0974,-7.1003,-7.1043,-7.1054,-7.1041,-7.1061,-7.1017,-7.1084,-7.0998,-7.1089,-7.1021,-7.1042,-7.1039,-7.1044,-7.1045,-7.0949,-7.1093,-7.134,-7.1363,-7.1051,-7.1048,-7.1046,0,-7.0912,-7.0982,-7.1065,-7.1076,-7.1078,-7.1118,-7.1121,-7.1127,-7.1151,-7.1177,-7.1192,-7.1226,-7.1244,-7.1271,-7.1237,-7.1177,-7.1333,-7.1244,-7.1323,-7.1324,-7.1356,-7.1354,-7.1608,-7.1375,-7.1374,-7.1374,-7.1373,0,-7.1103,-7.1182,-7.114,-7.1191,-7.1277,-7.1234,-7.132,-7.1315,-7.1322,-7.137,-7.1312,-7.1358,-7.1312,-7.1354,-7.1329,-7.1408,-7.1417,-7.1407,-7.1399,-7.1411,-7.1412,-7.1421,-7.1409,-7.138,-7.1379,-7.1377,-7.1376,0,-7.1301,-7.1277,-7.1363,-7.1359,-7.1359,-7.1423,-7.1418,-7.1465,-7.145,-7.1512,-7.1524,-7.1499,-7.1545,-7.1515,-7.1562,-7.1545,-7.1648,-7.1626,-7.1644,-7.1637,-7.1717,-7.1709,-7.1984,-7.2017,-7.1765,-7.1768,-7.177,0,-7.1423,-7.1483,-7.1485,-7.1514,-7.1521,-7.1568,-7.1592,-7.1553,-7.1581,-7.1599,-7.1643,-7.1686,-7.1717,-7.1795,-7.178,-7.1816,-7.1793,-7.1887,-7.1797,-7.1808,-7.1791,-7.1787,-7.1792,-7.1904,-7.1907,-7.1909,-7.1911,0,-7.1642,-7.1628,-7.1666,-7.17,-7.1731,-7.1756,-7.1776,-7.1803,-7.1764,-7.1798,-7.1846,-7.187,-7.1919,-7.1961,-7.1992,-7.1993,-7.1946,-7.194,-7.1959,-7.1971,-7.1978,-7.1973,-7.1691,-7.1933,-7.1931,-7.1929,-7.1928,-7.1927,-7.1804,-7.1854,-7.1863,-7.1908,-7.1919,-7.194,-7.1983,-7.1974,-7.2014,-7.2051,-7.2025,-7.2082,-7.2092,-7.2128,-7.2136,-7.2179,-7.214,-7.217,-7.2176,-7.2183,-7.2194,-7.1975,-7.2185,-7.2184,-7.2183,-7.2183,-7.2182,0,-7.2018,-7.2022,-7.2063,-7.2094,-7.2129,-7.2084,-7.2104,-7.2136,-7.2186,-7.22,-7.2233,-7.2288,-7.2329,-7.2319,-7.2356,-7.2392,-7.2371,-7.2403,-7.2398,-7.2399,-7.2227,-7.2205,-7.2419,-7.2419,-7.2419,-7.2419,-7.2419,-7.2419,-7.2133,-7.2214,-7.2201,-7.2286,-7.2289,-7.2344,-7.236,-7.2378,-7.2389,-7.2453,-7.2487,-7.2481,-7.2486,-7.2523,-7.2558,-7.2554,-7.2569,-7.2609,-7.2597,-7.2435,-7.2412,-7.2389,-7.2368,-7.2613,-7.2614,-7.2765,-7.2767,-7.2768]},{"header":{"parameterUnit":"m.s-1","parameterCategory":1,"la1":30.2991,"la2":30.254,"lo1":-89.0895,"lo2":-89.0444,"dy":0.0017,"dx":0.0017,"nx":28,"ny":28,"refTime":"2024-05-12T03:00:00:Z","depth":0,"parameterNumber":3,"parameterNumberName":"V-component_of_WINDS"},"data":[0,0,0,0,0,0,0,0,0,0,0,0,0,0,0,0,0,0,0,0,0,0,0,0,0,0,0,0,0,0,0,0,0,0,0,0,0,0,0,0,0,0,0,0,0,0,0,0,0,0,0,0,0,0,0,0,0,0,2.2243,2.2243,0,2.2236,2.2236,2.2236,2.2262,2.2263,2.2264,2.2265,2.2251,2.225,2.2249,0,0,0,0,0,0,0,0,0,0,0,0,0,2.2275,2.2274,2.2243,2.2243,2.2243,2.2236,2.2236,2.2236,2.2262,2.2263,2.2264,2.2265,2.2252,2.225,2.2249,0,0,0,0,0,0,0,0,0,0,0,0,0,2.2264,2.2274,2.2243,2.2256,2.2257,2.2236,2.2236,2.2236,2.2262,2.2263,2.2265,2.2266,2.2252,2.2251,2.2249,2.2215,0,0,2.2244,2.2243,0,0,0,0,0,0,0,0,2.2264,2.2263,2.2254,2.2255,2.2256,2.2252,2.2243,2.2229,2.2262,2.226,2.2265,2.2266,2.225,2.2249,2.2244,2.2214,2.2213,2.2244,2.2243,2.2242,2.2241,0,0,0,0,0,0,0,2.2265,2.2263,2.224,2.2254,2.2255,2.226,2.226,2.224,2.2248,2.226,2.2262,2.2261,2.2251,2.2246,2.2244,2.2213,2.2244,2.2242,2.2241,2.2241,2.2156,2.2155,0,0,0,0,0,0,2.2265,2.2264,2.2241,2.224,2.2263,2.2258,2.2258,2.2252,2.2248,2.2249,2.226,2.2262,2.2248,2.2246,2.2244,2.2204,2.2242,2.224,2.2239,2.2157,2.2155,2.2154,0,0,0,0,0,0,2.2266,2.2263,2.2241,2.2252,2.225,2.2257,2.2249,2.2251,2.2246,2.2249,2.225,2.2254,2.2249,2.2246,2.2223,2.2204,2.224,2.2238,2.2158,2.2157,2.2155,2.2124,0,0,0,0,0,0,2.2266,2.2263,2.2251,2.2252,2.2249,2.2221,2.2248,2.225,2.2244,2.2247,2.2243,2.2244,2.225,2.2225,2.2221,2.2203,2.2237,2.216,2.2158,2.2155,2.2127,2.2122,2.2117,0,0,0,0,0,2.2268,2.2241,2.225,2.2247,2.2235,2.2219,2.2218,2.2227,2.2242,2.223,2.2232,2.2244,2.2207,2.2222,2.2218,2.2199,2.2161,2.2158,2.2156,2.2129,2.2123,2.2117,0,0,0,0,0,0,2.2234,2.2241,2.2251,2.2224,2.2222,2.2224,2.2208,2.222,2.2211,2.2214,2.2224,2.2223,2.2197,2.2196,2.2212,2.2166,2.2187,2.2183,2.2168,2.2162,2.2157,2.2157,2.2235,0,0,0,0,0,2.2224,2.2213,2.2219,2.2194,2.2193,2.2201,2.2194,2.2203,2.2199,2.2197,2.2197,2.2192,2.218,2.2171,2.2159,2.2128,2.2127,2.2113,2.2108,2.2104,2.21,2.2084,2.2077,2.2145,2.2145,2.2145,0,0,2.2202,2.2204,2.2196,2.2188,2.2187,2.2174,2.2199,2.2184,2.2174,2.2194,2.2173,2.2173,2.2167,2.214,2.2128,2.2138,2.2081,2.21,2.2097,2.2095,2.208,2.2074,2.2068,2.2143,2.2143,2.2144,0,0,2.2155,2.2156,2.2137,2.2136,2.2135,2.2141,2.2136,2.2138,2.214,2.2119,2.2134,2.2122,2.21,2.2096,2.2091,2.2047,2.2057,2.2043,2.2016,2.2,2.1995,2.199,2.1974,2.1969,2.2039,2.2039,2.2039,0,2.2127,2.211,2.2125,2.2109,2.2105,2.2126,2.2106,2.2104,2.2098,2.2094,2.2106,2.2081,2.2079,2.2051,2.2041,2.2036,2.2031,2.2042,2.1995,2.1991,2.1986,2.1971,2.1965,2.2037,2.2037,2.2037,2.2038,0,2.2076,2.2064,2.2048,2.2046,2.204,2.2022,2.2033,2.2025,2.2034,2.2039,2.2017,2.2016,2.2006,2.2,2.2008,2.1974,2.198,2.1994,2.2014,2.1978,2.1964,2.1958,2.2035,2.2035,2.2036,2.2036,0,0,2.2005,2.2014,2.2007,2.2007,2.2009,2.1999,2.1982,2.1975,2.1968,2.1964,2.195,2.1933,2.1946,2.194,2.1948,2.1934,2.19,2.195,2.195,2.194,2.1863,2.1852,2.1845,2.1908,2.1907,2.1906,2.1863,0,2.196,2.1934,2.1948,2.1919,2.1908,2.1929,2.1915,2.1914,2.1918,2.1909,2.1913,2.1901,2.1919,2.1916,2.1904,2.1907,2.1884,2.191,2.1894,2.1893,2.1893,2.1838,2.1826,2.1786,2.1858,2.1857,2.1856,0,2.1903,2.19,2.1871,2.1877,2.1873,2.1859,2.1855,2.1846,2.1845,2.1849,2.1845,2.1857,2.184,2.1862,2.1839,2.1856,2.1851,2.1851,2.185,2.1847,2.1871,2.1834,2.1773,2.1767,2.1848,2.1848,2.1849,0,2.1854,2.1843,2.1824,2.1823,2.1829,2.182,2.1822,2.1823,2.1818,2.1813,2.181,2.1803,2.1798,2.1792,2.1801,2.1816,2.1777,2.1799,2.1779,2.1778,2.1768,2.1768,2.1705,2.1766,2.1766,2.1766,2.1766,0,2.1802,2.1783,2.1803,2.1791,2.1771,2.1787,2.1767,2.177,2.1772,2.1761,2.1778,2.1767,2.178,2.177,2.1777,2.1758,2.1755,2.1757,2.1759,2.1755,2.1755,2.1751,2.1754,2.1764,2.1765,2.1765,2.1765,0,2.1743,2.1756,2.1737,2.1746,2.1748,2.1733,2.1739,2.1729,2.1736,2.1722,2.1719,2.1729,2.1719,2.1728,2.1717,2.1722,2.1696,2.1702,2.1696,2.1698,2.1677,2.1679,2.1608,2.1599,2.1666,2.1665,2.1665,0,2.1708,2.1695,2.1703,2.1698,2.17,2.1691,2.1688,2.1703,2.1698,2.1698,2.1687,2.1679,2.1673,2.1655,2.166,2.1652,2.1658,2.1634,2.1657,2.1654,2.1658,2.1658,2.1657,2.1629,2.1628,2.1627,2.1627,0,2.1645,2.1653,2.1647,2.1645,2.164,2.1638,2.1638,2.1632,2.1649,2.1642,2.1633,2.1629,2.162,2.1611,2.1605,2.1606,2.1618,2.162,2.1615,2.161,2.1608,2.1609,2.1683,2.1621,2.1622,2.1622,2.1622,2.1623,2.1597,2.1586,2.1592,2.1585,2.1587,2.1587,2.1578,2.1585,2.1579,2.1574,2.1583,2.1572,2.1573,2.1568,2.1567,2.1558,2.1567,2.156,2.1558,2.1555,2.1553,2.1611,2.1556,2.1557,2.1557,2.1557,2.1557,0,2.1534,2.1539,2.1534,2.1534,2.1529,2.1545,2.1546,2.154,2.1531,2.1532,2.1527,2.1517,2.1509,2.1516,2.1509,2.15,2.1506,2.1498,2.1498,2.1498,2.1544,2.1549,2.1494,2.1494,2.1494,2.1494,2.1494,2.1494,2.1501,2.1485,2.1494,2.1479,2.1484,2.1475,2.1474,2.1473,2.1475,2.1464,2.1458,2.1464,2.1467,2.1461,2.1455,2.1457,2.1453,2.1443,2.1447,2.1489,2.1495,2.1501,2.1506,2.1442,2.1442,2.1402,2.1401,2.1401]}]]